�������l�o���
Date,Time,MP-1(��Sv/h),MP-2(��Sv/h),MP-3(��Sv/h),MP-4(��Sv/h),MP-5(��Sv/h),MP-6(��Sv/h),MP-7(��Sv/h),MP-8(��Sv/h),����,����(m/s),���J
2016/10/30,00:00,1.090,1.907,1.270,2.125,1.468,0.593,1.061,0.975,�k�k��,5.5,��
2016/10/30,00:10,1.093,1.903,1.272,2.124,1.471,0.595,1.060,0.976,�k�k��,4.2,��
2016/10/30,00:20,1.095,1.902,1.268,2.123,1.469,0.594,1.060,0.976,�k�k��,4.9,��
2016/10/30,00:30,1.094,1.902,1.269,2.123,1.470,0.593,1.060,0.976,�k�k��,4.7,��
2016/10/30,00:40,1.091,1.902,1.268,2.126,1.467,0.594,1.059,0.977,�k�k��,4.9,��
2016/10/30,00:50,1.094,1.906,1.272,2.126,1.471,0.594,1.059,0.977,�k�k��,4.7,��
2016/10/30,01:00,1.092,1.905,1.269,2.122,1.467,0.594,1.059,0.977,�k�k��,4.9,��
2016/10/30,01:10,1.093,1.904,1.270,2.123,1.467,0.593,1.059,0.977,�k�k��,4.9,��
2016/10/30,01:20,1.094,1.904,1.268,2.123,1.469,0.593,1.061,0.976,�k�k��,4.9,��
2016/10/30,01:30,1.092,1.904,1.269,2.123,1.469,0.593,1.060,0.976,�k�k��,3.8,��
2016/10/30,01:40,1.093,1.905,1.270,2.123,1.470,0.594,1.060,0.976,�k�k��,4.2,��
2016/10/30,01:50,1.093,1.904,1.271,2.122,1.470,0.593,1.059,0.976,�k�k��,4.2,��
2016/10/30,02:00,1.094,1.906,1.269,2.124,1.469,0.594,1.058,0.977,�k�k��,3.6,��
2016/10/30,02:10,1.092,1.904,1.271,2.124,1.467,0.594,1.058,0.976,�k�k��,4.4,��
2016/10/30,02:20,1.093,1.906,1.271,2.122,1.467,0.594,1.058,0.976,�k�k��,3.9,��
2016/10/30,02:30,1.091,1.906,1.265,2.126,1.471,0.594,1.059,0.977,�k�k��,3.6,��
2016/10/30,02:40,1.091,1.904,1.271,2.127,1.467,0.594,1.059,0.975,�k�k��,3.4,��
2016/10/30,02:50,1.093,1.904,1.268,2.123,1.468,0.593,1.059,0.977,�k�k��,3.6,��
2016/10/30,03:00,1.092,1.905,1.270,2.122,1.468,0.594,1.059,0.976,�k�k��,3.8,��
2016/10/30,03:10,1.094,1.904,1.271,2.124,1.469,0.595,1.060,0.977,�k�k��,3.4,��
2016/10/30,03:20,1.094,1.902,1.270,2.126,1.470,0.593,1.058,0.977,�k�k��,4.1,��
2016/10/30,03:30,1.094,1.907,1.271,2.127,1.469,0.593,1.058,0.977,�k�k��,4.1,��
2016/10/30,03:40,1.092,1.904,1.269,2.124,1.469,0.597,1.059,0.978,�k�k��,4.2,��
2016/10/30,03:50,1.091,1.903,1.269,2.126,1.469,0.593,1.058,0.976,�k�k��,4.9,��
2016/10/30,04:00,1.092,1.902,1.269,2.125,1.470,0.595,1.059,0.977,�k�k��,4.2,��
2016/10/30,04:10,1.094,1.905,1.269,2.123,1.470,0.593,1.058,0.978,�k��,3.8,��
2016/10/30,04:20,1.095,1.904,1.270,2.123,1.470,0.595,1.058,0.976,�k��,3.1,��
2016/10/30,04:30,1.091,1.902,1.269,2.123,1.469,0.595,1.060,0.976,�k��,2.4,��
2016/10/30,04:40,1.092,1.906,1.270,2.124,1.469,0.593,1.061,0.976,�k�k��,2.8,��
2016/10/30,04:50,1.095,1.900,1.270,2.125,1.468,0.593,1.060,0.978,�k�k��,2.0,��
2016/10/30,05:00,1.093,1.902,1.269,2.124,1.469,0.592,1.059,0.977,���k��,1.9,��
2016/10/30,05:10,1.091,1.905,1.268,2.120,1.470,0.594,1.060,0.977,��,1.5,��
2016/10/30,05:20,1.095,1.901,1.270,2.123,1.469,0.594,1.059,0.977,��,1.7,��
2016/10/30,05:30,1.094,1.902,1.269,2.121,1.469,0.593,1.062,0.976,���k��,1.9,��
2016/10/30,05:40,1.094,1.903,1.268,2.122,1.466,0.595,1.058,0.978,�k��,2.3,��
2016/10/30,05:50,1.091,1.904,1.270,2.124,1.468,0.594,1.059,0.975,�k��,1.7,��
2016/10/30,06:00,1.093,1.902,1.269,2.120,1.469,0.593,1.059,0.978,�k�k��,2.1,��
2016/10/30,06:10,1.093,1.903,1.267,2.123,1.467,0.594,1.058,0.977,�k��,2.4,��
2016/10/30,06:20,1.095,1.906,1.268,2.120,1.467,0.593,1.059,0.976,���k��,2.7,��
2016/10/30,06:30,1.093,1.902,1.268,2.126,1.469,0.595,1.059,0.978,���k��,2.8,��
2016/10/30,06:40,1.092,1.899,1.269,2.123,1.466,0.592,1.058,0.976,��,2.8,��
2016/10/30,06:50,1.093,1.904,1.269,2.124,1.470,0.592,1.058,0.976,��,3.1,��
2016/10/30,07:00,1.091,1.904,1.270,2.124,1.469,0.595,1.058,0.976,���쐼,3.0,��
2016/10/30,07:10,1.092,1.903,1.270,2.127,1.466,0.592,1.058,0.978,���쐼,2.3,��
2016/10/30,07:20,1.092,1.903,1.269,2.120,1.467,0.593,1.058,0.976,���쐼,2.1,��
2016/10/30,07:30,1.092,1.903,1.269,2.123,1.468,0.596,1.060,0.978,�쐼,1.8,��
2016/10/30,07:40,1.096,1.905,1.270,2.126,1.473,0.594,1.058,0.977,���쐼,1.6,��
2016/10/30,07:50,1.097,1.904,1.269,2.127,1.470,0.594,1.060,0.977,�쐼,1.6,��
2016/10/30,08:00,1.095,1.906,1.270,2.127,1.473,0.596,1.060,0.976,�쐼,1.9,��
2016/10/30,08:10,1.096,1.906,1.270,2.129,1.470,0.594,1.063,0.979,���쐼,1.9,��
2016/10/30,08:20,1.097,1.907,1.273,2.129,1.472,0.597,1.060,0.976,���쐼,0.9,��
2016/10/30,08:30,1.095,1.907,1.270,2.126,1.473,0.593,1.060,0.977,��쐼,1.0,��
2016/10/30,08:40,1.095,1.911,1.272,2.128,1.472,0.595,1.060,0.977,���k��,1.8,��
2016/10/30,08:50,1.099,1.909,1.273,2.126,1.471,0.594,1.060,0.978,�k��,1.8,��
2016/10/30,09:00,1.099,1.909,1.275,2.129,1.472,0.596,1.060,0.979,�k��,2.2,��
2016/10/30,09:10,1.098,1.910,1.276,2.127,1.477,0.597,1.058,0.979,�k,2.0,��
2016/10/30,09:20,1.100,1.913,1.274,2.128,1.472,0.595,1.060,0.978,�k��,2.6,��
2016/10/30,09:30,1.097,1.911,1.275,2.127,1.473,0.597,1.058,0.979,�k��,4.4,��
2016/10/30,09:40,1.099,1.911,1.274,2.130,1.474,0.594,1.062,0.980,�k�k��,4.1,��
2016/10/30,09:50,1.102,1.907,1.278,2.134,1.472,0.597,1.058,0.979,�k��,3.8,��
2016/10/30,10:00,1.100,1.910,1.277,2.130,1.474,0.595,1.060,0.980,�k��,5.2,��
2016/10/30,10:10,1.102,1.908,1.275,2.130,1.472,0.594,1.061,0.980,�k��,4.4,��
2016/10/30,10:20,1.101,1.911,1.278,2.132,1.478,0.595,1.061,0.978,�k�k��,2.4,��
2016/10/30,10:30,1.101,1.908,1.276,2.133,1.474,0.594,1.060,0.979,���k��,1.9,��
2016/10/30,10:40,1.100,1.908,1.278,2.131,1.473,0.595,1.061,0.979,���k��,1.9,��
2016/10/30,10:50,1.101,1.909,1.278,2.133,1.474,0.595,1.060,0.981,�k��,2.0,��
2016/10/30,11:00,1.099,1.910,1.277,2.132,1.475,0.595,1.061,0.978,�k��,2.0,��
2016/10/30,11:10,1.101,1.908,1.279,2.134,1.472,0.596,1.061,0.978,���k��,2.3,��
2016/10/30,11:20,1.098,1.913,1.278,2.137,1.477,0.595,1.062,0.978,���k��,2.5,��
2016/10/30,11:30,1.098,1.913,1.278,2.136,1.476,0.596,1.060,0.978,���k��,2.8,��
2016/10/30,11:40,1.100,1.911,1.279,2.133,1.480,0.597,1.061,0.980,���k��,3.8,��
2016/10/30,11:50,1.102,1.913,1.279,2.135,1.480,0.599,1.061,0.980,�k��,2.3,��
2016/10/30,12:00,1.102,1.913,1.278,2.134,1.477,0.598,1.061,0.978,���k��,2.3,��
2016/10/30,12:10,1.100,1.912,1.280,2.133,1.474,0.598,1.061,0.977,���k��,1.3,��
2016/10/30,12:20,1.099,1.917,1.280,2.133,1.477,0.596,1.061,0.981,���쓌,1.6,��
2016/10/30,12:30,1.100,1.912,1.280,2.136,1.478,0.598,1.061,0.982,��,1.6,��
2016/10/30,12:40,1.101,1.913,1.279,2.134,1.479,0.597,1.063,0.981,���쓌,1.4,��
2016/10/30,12:50,1.100,1.914,1.280,2.137,1.474,0.598,1.063,0.978,�쓌,1.8,��
2016/10/30,13:00,1.103,1.916,1.280,2.133,1.481,0.598,1.060,0.979,�쓌,3.1,��
2016/10/30,13:10,1.104,1.919,1.281,2.134,1.481,0.597,1.061,0.980,�쓌,2.6,��
2016/10/30,13:20,1.100,1.919,1.281,2.138,1.479,0.598,1.060,0.980,���쓌,3.1,��
2016/10/30,13:30,1.103,1.920,1.281,2.133,1.485,0.596,1.061,0.980,�쓌,3.4,��
2016/10/30,13:40,1.104,1.916,1.280,2.132,1.483,0.597,1.063,0.976,��쓌,3.9,��
2016/10/30,13:50,1.102,1.914,1.280,2.137,1.485,0.598,1.061,0.975,�쓌,4.4,��
2016/10/30,14:00,1.103,1.916,1.276,2.137,1.482,0.596,1.061,0.975,�쓌,3.9,��
2016/10/30,14:10,1.104,1.915,1.276,2.137,1.483,0.596,1.061,0.976,�쓌,4.2,��
2016/10/30,14:20,1.103,1.916,1.278,2.134,1.483,0.595,1.063,0.978,�쓌,3.1,��
2016/10/30,14:30,1.105,1.918,1.278,2.137,1.483,0.596,1.062,0.976,���쓌,3.5,��
2016/10/30,14:40,1.106,1.916,1.281,2.135,1.481,0.597,1.064,0.978,�쓌,3.0,��
2016/10/30,14:50,1.104,1.914,1.282,2.134,1.482,0.599,1.063,0.977,�쓌,3.4,��
2016/10/30,15:00,1.107,1.918,1.280,2.137,1.483,0.599,1.066,0.977,�쓌,3.9,��
2016/10/30,15:10,1.104,1.918,1.277,2.139,1.483,0.600,1.063,0.977,�쓌,3.5,��
2016/10/30,15:20,1.104,1.919,1.280,2.138,1.481,0.599,1.066,0.982,�쓌,3.2,��
2016/10/30,15:30,1.106,1.921,1.282,2.137,1.482,0.599,1.066,0.978,�쓌,3.0,��
2016/10/30,15:40,1.107,1.919,1.281,2.133,1.483,0.599,1.062,0.980,�쓌,2.0,��
2016/10/30,15:50,1.103,1.918,1.279,2.138,1.484,0.599,1.064,0.981,���쓌,1.6,��
2016/10/30,16:00,1.104,1.918,1.281,2.137,1.484,0.598,1.064,0.981,��쓌,1.8,��
2016/10/30,16:10,1.105,1.918,1.278,2.133,1.482,0.599,1.064,0.978,��,1.0,��
2016/10/30,16:20,1.104,1.919,1.280,2.135,1.483,0.601,1.063,0.979,��쓌,1.2,��
2016/10/30,16:30,1.101,1.918,1.278,2.136,1.482,0.598,1.064,0.980,�쓌,1.2,��
2016/10/30,16:40,1.104,1.919,1.280,2.136,1.484,0.599,1.066,0.979,-,CALM,��
2016/10/30,16:50,1.104,1.918,1.280,2.135,1.482,0.599,1.064,0.981,-,CALM,��
2016/10/30,17:00,1.104,1.921,1.281,2.138,1.485,0.599,1.065,0.979,-,CALM,��
2016/10/30,17:10,1.102,1.916,1.279,2.135,1.486,0.599,1.062,0.978,���쓌,0.6,��
2016/10/30,17:20,1.101,1.919,1.282,2.132,1.487,0.598,1.063,0.981,�k��,0.6,��
2016/10/30,17:30,1.101,1.917,1.278,2.132,1.485,0.598,1.062,0.980,-,CALM,��
2016/10/30,17:40,1.102,1.919,1.280,2.134,1.487,0.599,1.062,0.979,-,CALM,��
2016/10/30,17:50,1.101,1.919,1.280,2.134,1.486,0.596,1.063,0.979,-,CALM,��
2016/10/30,18:00,1.101,1.917,1.279,2.134,1.485,0.597,1.063,0.977,��,0.8,��
2016/10/30,18:10,1.100,1.916,1.278,2.133,1.484,0.597,1.063,0.976,�k��,1.4,��
2016/10/30,18:20,1.101,1.917,1.279,2.134,1.483,0.598,1.062,0.979,���k��,1.5,��
2016/10/30,18:30,1.100,1.919,1.278,2.132,1.484,0.597,1.061,0.977,���k��,0.9,��
2016/10/30,18:40,1.099,1.917,1.278,2.134,1.482,0.598,1.061,0.977,��,0.7,��
2016/10/30,18:50,1.101,1.917,1.280,2.131,1.485,0.596,1.062,0.976,��쐼,1.1,��
2016/10/30,19:00,1.099,1.916,1.279,2.132,1.482,0.597,1.062,0.977,���쐼,1.4,��
2016/10/30,19:10,1.102,1.915,1.280,2.133,1.484,0.596,1.064,0.978,���쐼,1.7,��
2016/10/30,19:20,1.099,1.917,1.276,2.133,1.483,0.597,1.062,0.976,���쐼,1.7,��
2016/10/30,19:30,1.102,1.918,1.280,2.133,1.485,0.596,1.064,0.978,���쐼,1.5,��
2016/10/30,19:40,1.100,1.917,1.277,2.133,1.483,0.597,1.062,0.978,���쐼,1.4,��
2016/10/30,19:50,1.100,1.917,1.279,2.132,1.485,0.596,1.060,0.978,�쐼,1.8,��
2016/10/30,20:00,1.098,1.915,1.280,2.133,1.484,0.596,1.062,0.977,��쐼,0.9,��
2016/10/30,20:10,1.102,1.916,1.279,2.135,1.482,0.596,1.061,0.978,���k��,1.2,��
2016/10/30,20:20,1.102,1.916,1.276,2.136,1.482,0.596,1.061,0.979,�k�k��,1.4,��
2016/10/30,20:30,1.101,1.918,1.279,2.136,1.482,0.597,1.060,0.975,�k��,1.9,��
2016/10/30,20:40,1.101,1.921,1.278,2.136,1.482,0.596,1.062,0.977,�k,3.4,��
2016/10/30,20:50,1.102,1.917,1.277,2.134,1.484,0.595,1.062,0.978,�k�k��,3.3,��
2016/10/30,21:00,1.100,1.915,1.278,2.134,1.484,0.597,1.060,0.978,�k�k��,4.4,��
2016/10/30,21:10,1.099,1.916,1.279,2.133,1.481,0.596,1.064,0.977,�k�k��,4.9,��
2016/10/30,21:20,1.098,1.915,1.281,2.135,1.480,0.596,1.062,0.976,�k�k��,5.5,��
2016/10/30,21:30,1.098,1.917,1.278,2.135,1.480,0.596,1.063,0.976,�k�k��,4.9,��
2016/10/30,21:40,1.099,1.916,1.278,2.136,1.482,0.597,1.061,0.978,�k�k��,5.3,��
2016/10/30,21:50,1.098,1.916,1.277,2.133,1.482,0.596,1.061,0.979,�k�k��,5.3,��
2016/10/30,22:00,1.101,1.919,1.276,2.133,1.482,0.597,1.062,0.978,�k��,4.9,��
2016/10/30,22:10,1.099,1.919,1.278,2.133,1.481,0.596,1.060,0.977,�k��,5.2,��
2016/10/30,22:20,1.099,1.916,1.279,2.134,1.483,0.595,1.062,0.979,�k��,5.5,��
2016/10/30,22:30,1.100,1.914,1.279,2.134,1.484,0.596,1.062,0.977,�k��,4.9,��
2016/10/30,22:40,1.101,1.918,1.280,2.136,1.480,0.598,1.061,0.979,�k��,4.9,��
2016/10/30,22:50,1.099,1.917,1.280,2.133,1.483,0.596,1.062,0.977,�k��,4.9,��
2016/10/30,23:00,1.101,1.919,1.278,2.134,1.485,0.596,1.062,0.980,�k��,3.8,��
2016/10/30,23:10,1.101,1.914,1.277,2.132,1.486,0.597,1.062,0.980,�k��,3.3,��
2016/10/30,23:20,1.100,1.916,1.278,2.134,1.484,0.598,1.062,0.978,�k��,3.3,��
2016/10/30,23:30,1.100,1.915,1.279,2.133,1.481,0.597,1.060,0.979,�k��,2.7,��
2016/10/30,23:40,1.101,1.916,1.279,2.131,1.481,0.596,1.061,0.978,�k��,2.7,��
2016/10/30,23:50,1.102,1.916,1.277,2.134,1.481,0.595,1.060,0.978,���k��,2.9,��
